Weather in Pompeyevka

Russia / Jewish Autonomous Oblast     48°22′37″N   131°07′25″E
temp.,
°C
wind,
m/s
gust,
m/s
humid.,
%
clouds,
%
prec.,
mm/h
press.,
hPa
HPBL,
m
19 may, wed
wed1901:00+11nne1294100 0.1 100365
04:00+11nnw2296100 0.3 100061
07:00+11nnw129380 0.1 100399
10:00+17wnw2363100 0.1 1002741
13:00+20nw4442100 0.0 10031695
16:00+21nw46345 0.0 10032228
19:00+20nnw234195 0.0 1003427
22:00+12e226337 0.0 100412
20 may, thu
thu2001:00+11ese226650 0.0 100232
04:00+12sse2775100 0.1 1001186
07:00+14ese1383100 0.3 1000107
10:00+17sw2878100 1.9 1001473
13:00+23wnw574532 0.0 10021707
16:00+23nw5641100 0.1 10031359
19:00+19nnw35422 0.8 1004675
22:00+12n226070 0.8 100616
21 may, fri
fri2101:00+10nne11650 0.0 100710
04:00+9ne11670 0.0 100710
07:00+12ne11550 0.0 100744
10:00+22sse12333 0.0 1006665
13:00+26sw33280 0.0 10041551
16:00+28ssw23280 0.0 10022370
19:00+26s343794 0.0 1002555
22:00+15se017832 0.2 100411
22 may, sat
sat2201:00+14e11810 0.0 100410
04:00+13nnw00863 0.0 100410
07:00+15ene11775 0.0 100448
10:00+23se34472 0.3 1004943
13:00+27sse44345 0.0 10031685
16:00+27s55324 0.0 10021624
19:00+24sse47414 0.0 10021102
22:00+16ese22715 0.3 100415
23 may, sun
sun2301:00+15ese3147585 0.0 1004401
04:00+14ese3878100 0.1 1003216
07:00+15se2107699 0.0 1002331
10:00+20s5860100 0.3 1001809
13:00+16se51193100 1.1 1001558
16:00+23s71056100 1.1 9991616
19:00+18sw61286100 2.7 999865
22:00+14wsw3695100 6.6 1001198